Time,TemperatureF,DewpointF,PressureIn,WindDirection,WindDirectionDegrees,WindSpeedMPH,WindSpeedGustMPH,Humidity,HourlyPrecipIn,Conditions,Clouds,dailyrainin,SoftwareType,DateUTC
2013-01-13 00:11:00,60.5,58.0,29.94,South,186,0.0,2.0,91,0.00,,,0.00,weatherlink.com 1.10,2013-01-13 06:11:00,
2013-01-13 00:26:00,60.2,58.0,29.93,SW,219,0.0,3.0,91,0.00,,,0.00,weatherlink.com 1.10,2013-01-13 06:26:00,
2013-01-13 00:41:00,60.3,58.0,29.93,SW,220,0.0,3.0,91,0.00,,,0.00,weatherlink.com 1.10,2013-01-13 06:41:00,
2013-01-13 00:56:00,60.1,58.0,29.93,West,280,0.0,2.0,92,0.00,,,0.00,weatherlink.com 1.10,2013-01-13 06:56:00,
2013-01-13 01:11:00,60.2,58.0,29.93,SW,221,0.0,2.0,92,0.00,,,0.00,weatherlink.com 1.10,2013-01-13 07:11:00,
2013-01-13 01:26:00,60.0,58.0,29.92,SW,223,0.0,3.0,92,0.00,,,0.00,weatherlink.com 1.10,2013-01-13 07:26:00,
2013-01-13 01:41:00,60.3,58.0,29.92,South,190,0.0,2.0,92,0.00,,,0.00,weatherlink.com 1.10,2013-01-13 07:41:00,
2013-01-13 01:56:00,60.7,59.0,29.92,SSW,198,0.0,6.0,93,0.00,,,0.00,weatherlink.com 1.10,2013-01-13 07:56:00,
2013-01-13 02:11:00,60.9,59.0,29.92,South,171,0.0,5.0,92,0.00,,,0.00,weatherlink.com 1.10,2013-01-13 08:11:00,
2013-01-13 02:26:00,60.9,59.0,29.92,SSW,192,0.0,3.0,93,0.00,,,0.00,weatherlink.com 1.10,2013-01-13 08:26:00,
2013-01-13 02:41:00,61.1,59.0,29.92,SSW,209,0.0,4.0,93,0.00,,,0.00,weatherlink.com 1.10,2013-01-13 08:41:00,
2013-01-13 02:56:00,61.3,59.0,29.91,SSW,198,0.0,3.0,93,0.00,,,0.00,weatherlink.com 1.10,2013-01-13 08:56:00,
2013-01-13 03:11:00,61.5,59.0,29.92,West,275,0.0,5.0,92,0.00,,,0.00,weatherlink.com 1.10,2013-01-13 09:11:00,
2013-01-13 03:26:00,61.8,60.0,29.92,SSW,198,0.0,4.0,92,0.00,,,0.00,weatherlink.com 1.10,2013-01-13 09:26:00,
2013-01-13 03:41:00,61.9,60.0,29.91,SSW,205,0.0,7.0,92,0.00,,,0.00,weatherlink.com 1.10,2013-01-13 09:41:00,
2013-01-13 03:56:00,62.1,60.0,29.91,SW,229,0.0,6.0,91,0.00,,,0.00,weatherlink.com 1.10,2013-01-13 09:56:00,
2013-01-13 04:11:00,62.3,60.0,29.91,SSW,200,0.0,7.0,91,0.00,,,0.00,weatherlink.com 1.10,2013-01-13 10:11:00,
2013-01-13 04:26:00,62.3,60.0,29.90,SSW,195,0.0,1.0,91,0.00,,,0.00,weatherlink.com 1.10,2013-01-13 10:26:00,
2013-01-13 04:41:00,62.2,60.0,29.91,SSE,149,0.0,3.0,91,0.00,,,0.00,weatherlink.com 1.10,2013-01-13 10:41:00,
2013-01-13 04:56:00,62.3,60.0,29.92,South,169,0.0,2.0,91,0.00,,,0.00,weatherlink.com 1.10,2013-01-13 10:56:00,
2013-01-13 05:11:00,62.1,60.0,29.93,WSW,244,0.0,0.0,92,0.00,,,0.00,weatherlink.com 1.10,2013-01-13 11:11:00,
2013-01-13 05:26:00,61.9,60.0,29.94,WSW,244,0.0,0.0,92,0.00,,,0.00,weatherlink.com 1.10,2013-01-13 11:26:00,
2013-01-13 05:41:00,61.8,60.0,29.94,WSW,244,0.0,0.0,93,0.00,,,0.00,weatherlink.com 1.10,2013-01-13 11:41:00,
2013-01-13 05:56:00,61.7,60.0,29.96,WSW,240,0.0,0.0,93,0.00,,,0.00,weatherlink.com 1.10,2013-01-13 11:56:00,
2013-01-13 06:11:00,61.6,60.0,29.97,WSW,240,0.0,0.0,93,0.00,,,0.00,weatherlink.com 1.10,2013-01-13 12:11:00,
2013-01-13 06:26:00,61.5,60.0,29.97,WSW,240,0.0,0.0,94,0.00,,,0.00,weatherlink.com 1.10,2013-01-13 12:26:00,
2013-01-13 06:41:00,61.6,60.0,29.98,South,183,0.0,1.0,94,0.00,,,0.00,weatherlink.com 1.10,2013-01-13 12:41:00,
2013-01-13 07:11:00,62.0,60.0,29.98,SSE,149,0.0,1.0,94,0.00,,,0.00,weatherlink.com 1.10,2013-01-13 13:11:00,
2013-01-13 07:26:00,62.1,60.0,29.98,SSE,158,0.0,1.0,94,0.00,,,0.00,weatherlink.com 1.10,2013-01-13 13:26:00,
2013-01-13 07:41:00,62.3,61.0,29.98,South,178,0.0,3.0,94,0.00,,,0.00,weatherlink.com 1.10,2013-01-13 13:41:00,
2013-01-13 07:56:00,62.5,61.0,29.98,South,183,0.0,2.0,94,0.00,,,0.00,weatherlink.com 1.10,2013-01-13 13:56:00,
2013-01-13 08:11:00,62.7,61.0,29.98,SSW,193,0.0,2.0,94,0.00,,,0.00,weatherlink.com 1.10,2013-01-13 14:11:00,
2013-01-13 08:26:00,63.0,61.0,29.98,South,182,0.0,3.0,93,0.00,,,0.00,weatherlink.com 1.10,2013-01-13 14:26:00,
2013-01-13 08:41:00,63.1,61.0,29.98,South,182,0.0,0.0,93,0.00,,,0.00,weatherlink.com 1.10,2013-01-13 14:41:00,
2013-01-13 08:56:00,63.2,61.0,29.98,South,172,0.0,0.0,93,0.00,,,0.00,weatherlink.com 1.10,2013-01-13 14:56:00,
2013-01-13 09:11:00,63.1,61.0,29.99,South,171,0.0,0.0,94,0.00,,,0.00,weatherlink.com 1.10,2013-01-13 15:11:00,
2013-01-13 09:26:00,63.1,61.0,29.98,South,171,0.0,0.0,94,0.00,,,0.00,weatherlink.com 1.10,2013-01-13 15:26:00,
2013-01-13 09:41:00,63.2,62.0,29.98,South,171,0.0,0.0,94,0.00,,,0.00,weatherlink.com 1.10,2013-01-13 15:41:00,
2013-01-13 09:56:00,63.3,62.0,29.98,SSE,167,0.0,1.0,94,0.00,,,0.00,weatherlink.com 1.10,2013-01-13 15:56:00,
2013-01-13 10:11:00,63.5,62.0,29.97,SSW,204,0.0,1.0,94,0.00,,,0.00,weatherlink.com 1.10,2013-01-13 16:11:00,
2013-01-13 10:26:00,63.9,62.0,29.97,South,172,0.0,1.0,94,0.00,,,0.00,weatherlink.com 1.10,2013-01-13 16:26:00,
2013-01-13 10:41:00,64.3,63.0,29.97,SW,231,0.0,1.0,94,0.00,,,0.00,weatherlink.com 1.10,2013-01-13 16:41:00,
2013-01-13 10:56:00,64.8,63.0,29.96,South,180,0.0,1.0,93,0.00,,,0.00,weatherlink.com 1.10,2013-01-13 16:56:00,
2013-01-13 11:11:00,65.5,63.0,29.96,South,184,2.0,6.0,92,0.00,,,0.00,weatherlink.com 1.10,2013-01-13 17:11:00,
2013-01-13 11:26:00,66.2,63.0,29.94,SSW,199,0.0,4.0,90,0.00,,,0.00,weatherlink.com 1.10,2013-01-13 17:26:00,
2013-01-13 11:42:00,66.9,64.0,29.94,SW,221,0.0,6.0,89,0.00,,,0.00,weatherlink.com 1.10,2013-01-13 17:42:00,
2013-01-13 11:57:00,67.7,63.0,29.93,South,186,2.0,5.0,86,0.00,,,0.00,weatherlink.com 1.10,2013-01-13 17:57:00,
2013-01-13 12:12:00,68.5,64.0,29.93,SE,128,2.0,7.0,84,0.00,,,0.00,weatherlink.com 1.10,2013-01-13 18:12:00,
2013-01-13 12:27:00,68.5,63.0,29.93,SSW,200,0.0,6.0,83,0.00,,,0.00,weatherlink.com 1.10,2013-01-13 18:27:00,
2013-01-13 12:42:00,68.3,64.0,29.93,WSW,238,0.0,5.0,85,0.00,,,0.00,weatherlink.com 1.10,2013-01-13 18:42:00,
2013-01-13 12:57:00,68.4,64.0,29.92,SSW,206,0.0,7.0,85,0.00,,,0.00,weatherlink.com 1.10,2013-01-13 18:57:00,
2013-01-13 13:12:00,68.4,63.0,29.92,SSW,198,0.0,4.0,84,0.00,,,0.00,weatherlink.com 1.10,2013-01-13 19:12:00,
2013-01-13 13:27:00,68.9,64.0,29.91,SSW,213,1.0,3.0,83,0.00,,,0.00,weatherlink.com 1.10,2013-01-13 19:27:00,
2013-01-13 13:42:00,69.2,64.0,29.91,SSE,161,0.0,4.0,83,0.00,,,0.00,weatherlink.com 1.10,2013-01-13 19:42:00,
2013-01-13 13:57:00,68.8,63.0,29.91,SSW,192,2.0,6.0,82,0.00,,,0.00,weatherlink.com 1.10,2013-01-13 19:57:00,
2013-01-13 14:12:00,69.0,63.0,29.90,SSW,202,3.0,7.0,82,0.00,,,0.00,weatherlink.com 1.10,2013-01-13 20:12:00,
2013-01-13 14:27:00,69.3,63.0,29.90,NNE,12,0.0,8.0,81,0.00,,,0.00,weatherlink.com 1.10,2013-01-13 20:27:00,
2013-01-13 14:42:00,70.0,64.0,29.90,SSE,159,0.0,7.0,80,0.00,,,0.00,weatherlink.com 1.10,2013-01-13 20:42:00,
2013-01-13 14:57:00,69.9,64.0,29.90,SSE,159,5.0,5.0,80,0.00,,,0.00,weatherlink.com 1.10,2013-01-13 20:57:00,
2013-01-13 15:12:00,69.9,63.0,29.89,SSE,159,3.0,8.0,79,0.00,,,0.00,weatherlink.com 1.10,2013-01-13 21:12:00,
2013-01-13 15:27:00,69.9,64.0,29.90,SSW,212,0.0,6.0,80,0.00,,,0.00,weatherlink.com 1.10,2013-01-13 21:27:00,
2013-01-13 15:42:00,69.7,64.0,29.89,South,187,0.0,3.0,81,0.00,,,0.00,weatherlink.com 1.10,2013-01-13 21:42:00,
2013-01-13 15:57:00,69.2,64.0,29.89,South,177,0.0,5.0,82,0.00,,,0.00,weatherlink.com 1.10,2013-01-13 21:57:00,
2013-01-13 16:12:00,68.7,63.0,29.89,WSW,246,2.0,7.0,82,0.00,,,0.00,weatherlink.com 1.10,2013-01-13 22:12:00,
2013-01-13 16:27:00,68.3,63.0,29.89,ESE,113,0.0,4.0,83,0.00,,,0.00,weatherlink.com 1.10,2013-01-13 22:27:00,
2013-01-13 16:42:00,68.2,63.0,29.89,SSW,194,0.0,4.0,84,0.00,,,0.00,weatherlink.com 1.10,2013-01-13 22:42:00,
2013-01-13 16:57:00,67.3,63.0,29.89,SW,221,0.0,5.0,87,0.01,,,0.01,weatherlink.com 1.10,2013-01-13 22:57:00,
2013-01-13 17:12:00,66.2,63.0,29.90,South,188,0.0,2.0,90,0.01,,,0.01,weatherlink.com 1.10,2013-01-13 23:12:00,
2013-01-13 17:27:00,65.7,63.0,29.90,SSW,205,0.0,3.0,91,0.01,,,0.01,weatherlink.com 1.10,2013-01-13 23:27:00,
2013-01-13 17:42:00,65.3,63.0,29.90,SW,232,0.0,2.0,92,0.02,,,0.02,weatherlink.com 1.10,2013-01-13 23:42:00,
2013-01-13 17:57:00,65.2,63.0,29.91,SSE,167,0.0,7.0,93,0.08,,,0.09,weatherlink.com 1.10,2013-01-13 23:57:00,
2013-01-13 18:12:00,65.1,63.0,29.92,South,170,0.0,5.0,94,0.15,,,0.16,weatherlink.com 1.10,2013-01-14 00:12:00,
2013-01-13 18:27:00,65.0,63.0,29.92,SW,220,2.0,4.0,94,0.22,,,0.23,weatherlink.com 1.10,2013-01-14 00:27:00,
2013-01-13 18:42:00,65.0,64.0,29.92,South,180,0.0,3.0,95,0.27,,,0.30,weatherlink.com 1.10,2013-01-14 00:42:00,
2013-01-13 19:12:00,64.9,64.0,29.93,South,186,0.0,5.0,96,0.25,,,0.42,weatherlink.com 1.10,2013-01-14 01:12:00,
2013-01-13 19:27:00,65.0,64.0,29.94,WNW,296,0.0,2.0,96,0.27,,,0.51,weatherlink.com 1.10,2013-01-14 01:27:00,
2013-01-13 19:41:00,63.8,62.0,29.95,NNE,12,1.0,9.0,93,0.44,,,0.75,weatherlink.com 1.10,2013-01-14 01:41:00,
2013-01-13 19:57:00,62.8,61.0,29.94,NNW,347,0.0,4.0,94,0.45,,,0.82,weatherlink.com 1.10,2013-01-14 01:57:00,
2013-01-13 20:12:00,62.1,60.0,29.96,North,360,5.0,10.0,94,0.41,,,0.84,weatherlink.com 1.10,2013-01-14 02:12:00,
2013-01-13 20:27:00,60.9,59.0,29.96,NW,316,4.0,10.0,94,0.41,,,0.93,weatherlink.com 1.10,2013-01-14 02:27:00,
2013-01-13 20:42:00,60.2,59.0,29.96,NW,309,2.0,6.0,95,0.21,,,0.99,weatherlink.com 1.10,2013-01-14 02:42:00,
2013-01-13 20:57:00,59.6,58.0,29.96,NNW,342,0.0,6.0,94,0.20,,,1.02,weatherlink.com 1.10,2013-01-14 02:57:00,
2013-01-13 21:12:00,59.2,58.0,29.97,NW,307,1.0,8.0,94,0.19,,,1.03,weatherlink.com 1.10,2013-01-14 03:12:00,
2013-01-13 21:27:00,58.9,57.0,29.96,WNW,300,5.0,6.0,94,0.10,,,1.04,weatherlink.com 1.10,2013-01-14 03:27:00,
2013-01-13 21:42:00,58.4,57.0,29.97,North,355,2.0,5.0,94,0.05,,,1.04,weatherlink.com 1.10,2013-01-14 03:42:00,
2013-01-13 21:58:00,57.8,56.0,29.98,NW,326,0.0,6.0,94,0.02,,,1.04,weatherlink.com 1.10,2013-01-14 03:58:00,
2013-01-13 22:12:00,57.4,56.0,30.00,NNW,330,0.0,4.0,94,0.01,,,1.04,weatherlink.com 1.10,2013-01-14 04:12:00,
2013-01-13 22:27:00,56.8,55.0,30.01,NW,324,3.0,3.0,94,0.00,,,1.04,weatherlink.com 1.10,2013-01-14 04:27:00,
2013-01-13 22:42:00,55.6,54.0,30.02,NNW,345,0.0,7.0,93,0.00,,,1.04,weatherlink.com 1.10,2013-01-14 04:42:00,
2013-01-13 22:56:00,54.7,53.0,30.02,NNE,30,0.0,9.0,93,0.01,,,1.05,weatherlink.com 1.10,2013-01-14 04:56:00,
2013-01-13 23:13:00,53.1,51.0,30.02,NE,49,1.0,6.0,93,0.02,,,1.06,weatherlink.com 1.10,2013-01-14 05:13:00,
2013-01-13 23:28:00,52.1,51.0,30.02,NNW,335,8.0,10.0,94,0.02,,,1.06,weatherlink.com 1.10,2013-01-14 05:28:00,
2013-01-13 23:43:00,51.4,50.0,30.02,NE,42,2.0,5.0,94,0.02,,,1.06,weatherlink.com 1.10,2013-01-14 05:43:00,
2013-01-13 23:58:00,50.6,49.0,30.03,NNW,331,2.0,6.0,94,0.01,,,1.06,weatherlink.com 1.10,2013-01-14 05:58:00,